Overview Statistics Trail Chart Weather Telemetry Raw packets
 

This is the latest recevied weather packets stored in our database for station/object DL6DJ-15. If no packets are shown the sender has not sent any weather packets the latest 10 day(s).

<< 91 92 93 94 95 96 97 >>
Time Temp. Humidity Pressure Rain* Wind** Luminosity Snow
1787929858 20.56° C 83% 1016 hPa - - - -
1787929558 20.56° C 82% 1015.7 hPa - - - -
1787929258 20.56° C 84% 1015.4 hPa - - - -
1787928957 20° C 85% 1015.4 hPa - - - -
1787928656 20° C 85% 1015.5 hPa - - - -
1787928356 20.56° C 84% 1015.7 hPa - - - -
1787928056 20.56° C 83% 1016 hPa - - - -
1787927756 20.56° C 78% 1015.9 hPa - - - -
1787927456 20.56° C 81% 1016.1 hPa - - - -
1787927155 21.11° C 81% 1016.1 hPa - - - -
1787926854 21.11° C 78% 1016.1 hPa - - - -
1787926554 21.11° C 80% 1015.7 hPa - - - -
1787926254 21.11° C 78% 1016.2 hPa - - - -
1787925953 21.11° C 81% 1016.3 hPa - - - -
1787925653 20.56° C 80% 1016.5 hPa - - - -
1787925353 20.56° C 80% 1016.8 hPa - - - -
1787925052 21.11° C 79% 1017 hPa - - - -
1787924752 21.11° C 76% 1017.1 hPa - - - -
1787924451 21.67° C 76% 1017 hPa - - - -
1787924151 22.22° C 74% 1017.1 hPa - - - -
1787923850 22.78° C 72% 1017 hPa - - - -
1787923550 23.33° C 64% 1016.9 hPa - - - -
1787923249 23.89° C 62% 1016.4 hPa - - - -
1787922949 25° C 57% 1016.1 hPa - - - -
1787922649 26.11° C 54% 1015.8 hPa - - - -

* Rain since midnight (hover to see other rain measurements)
** Current wind speed in m/s (hover to see current wind gust speed)